Location: Hains Lake
(37.8540°N, 99.8578°W)
Time: 02:10:07
(UTC+00:00)

Transit 2A - Pass Details

Date: 28 April 2021
Orbit: 602 x 957 km, 66.7° (Epoch: 14 May)

Event Time Altitude Azimuth Distance (km) Brightness Sun altitude
Rises 22:08:51 0° 309° (NW) 2,942 9.5 37.8°
Reaches altitude 10° 22:12:08 10° 283° (WNW) 2,084 9.3 37.2°
Maximum altitude 22:14:28 14° 253° (WSW) 1,884 9.5 36.7°
Drops below altitude 10° 22:16:53 10° 223° (SW) 2,175 9.2 36.3°
Sets 22:20:28 0° 198° (SSW) 3,174 9.5 35.6°
